Regional Weather Roundup
Issued by NWS Jackson, KY

Home | Current Version | Previous Version | Text Only | Print | Product List | Glossary On
Versions: 1 2 3 4 5 6 7 8 9 10 11 12 13 14 15 16 17 18 19 20 21 22 23 24 25 26 27
000
ASUS43 KJKL 241610
RWRJKL

EAST KENTUCKY HOURLY WEATHER ROUNDUP
NATIONAL WEATHER SERVICE JACKSON KY
1200 PM EDT SUN SEP 24 2017

NOTE: "FAIR" INDICATES FEW OR NO CLOUDS BELOW 12,000 FEET WITH
NO SIGNIFICANT WEATHER AND/OR OBSTRUCTIONS TO VISIBILITY.

* THESE REPORTS ARE NOT UNDER NWS QUALITY CONTROL AND MAY NOT
  REPORT WEATHER SUCH AS PRECIPITATION AND FOG.

KYZ079-080-083-085-087-088-110-112-115-119-120-241700
...EASTERN KENTUCKY...

CITY           SKY/WX    TMP DP  RH WIND       PRES   REMARKS
JACKSON        SUNNY     79  64  60 CALM      30.14F
LONDON         SUNNY     80  64  58 VRB6      30.13F
SOMERSET*      SUNNY     79  63  57 CALM      30.13S
MONTICELLO*    SUNNY    N/A N/A N/A W14       30.13S
WILLIAMSBURG*  SUNNY     81  66  61 S6        30.13S
MIDDLESBORO*   SUNNY     80  62  55 CALM      30.14F
HARLAN APT*    SUNNY     79  61  53 CALM      30.16S
PIKE CO APT*     N/A     76  61  60 CALM      30.16S
BIG SANDY APT* SUNNY     80  62  53 SE5       30.15S
MOREHEAD APT*  SUNNY     81  61  50 VRB3      30.15F
$$

KYZ035-036-041-042-044-050-067-078-099-241700
...CENTRAL KENTUCKY...

CITY           SKY/WX    TMP DP  RH WIND       PRES   REMARKS
MT STERLING*   SUNNY     79  61  53 CALM      30.15S
FLEMING/MASON* SUNNY     80  63  56 CALM      30.15F
DANVILLE*      SUNNY     81  66  61 CALM      30.12F
LEXINGTON      SUNNY     82  64  54 E3        30.12F
FRANKFORT      SUNNY     83  66  56 E6        30.10F
LOUISVILLE     MOSUNNY   82  66  58 SE3       30.08F
LEBANON*         N/A     82  66  57 CALM      30.10F
GLASGOW*       SUNNY     83  68  60 CALM      30.09S
BOWLING GREEN  SUNNY     82  70  66 CALM      30.08S
$$

KYZ091>093-OHZ055-061-077-WVZ005-015-034-035-042-241700
...SOUTHERN OHIO/WEST VIRGINIA...

CITY           SKY/WX    TMP DP  RH WIND       PRES   REMARKS
COVINGTON      MOSUNNY   81  65  58 SE6       30.12F
COLUMBUS       SUNNY     84  57  39 S8        30.14F
DAYTON         SUNNY     80  61  52 SE8       30.15F
WILMINGTON     SUNNY     83  62  49 SE8       30.14S
HUNTINGTON     SUNNY     79  63  57 E5        30.14S
CHARLESTON     MOSUNNY   80  60  50 N3        30.15F
PINEVILLE*     SUNNY     79  56  46 MISG      30.21F
BECKLEY        SUNNY     77  53  43 SE10      30.21S
BLUEFIELD      SUNNY     73  50  44 VRB6      30.22F
LOGAN CO APT*    N/A     79  57  47 CALM      30.17S
$$

VAZ002-007-008-TNZ017-027-036-066-071-241700
...SOUTHWEST VIRGINIA/EAST TENNESSEE...

CITY           SKY/WX    TMP DP  RH WIND       PRES   REMARKS
WISE*          SUNNY     77  52  41 SE5       30.22F
JONESVILLE*      N/A     81  59  47 CALM      30.17F
ABINGDON*      SUNNY     78  58  49 CALM      30.18F
BRISTOL        MOSUNNY   78  57  48 CALM      30.15F
MORRISTOWN*    SUNNY     81  59  47 SE5       30.13S
SEVIERVILLE*   SUNNY     81  63  54 CALM      30.11F
LAFOLLETTE*    SUNNY     79  64  61 CALM      30.17S
OAK RIDGE      PTSUNNY   79  65  62 CALM      30.14S
CROSSVILLE     PTSUNNY   76  62  62 S5        30.16F
NASHVILLE      MOSUNNY   85  66  53 S7        30.08S
$$

...KEY TO REMARKS...
VSB - VISIBILITY IN MILES
WCI - WIND CHILL INDEX
HX  - HEAT INDEX

$$




USA.gov is the U.S. government's official web portal to all federal, state and local government web resources and services.